Regional Weather Roundup
Issued by NWS Charleston, SC

Current Version | Previous Version | Graphics & Text | Print | Product List | Glossary On
Versions: 1 2 3 4 5 6 7 8 9 10 11 12 13 14 15 16 17 18 19 20 21 22 23 24 25 26 27 28 29 30 31 32 33 34 35 36 37 38 39 40 41 42 43 44 45 46 47 48 49 50
000
ASUS42 KCHS 201412
RWRCHS

REGIONAL WEATHER ROUNDUP
NATIONAL WEATHER SERVICE CHARLESTON SC
900 AM EST MON NOV 20 2017

NOTE: "FAIR" INDICATES FEW OR NO CLOUDS BELOW 12,000 FEET WITH NO
SIGNIFICANT WEATHER AND/OR OBSTRUCTIONS TO VISIBILITY.

NOT ALL STATIONS ARE QUALITY CONTROLLED. USE DATA WITH CAUTION...
ESPECIALLY DEWPOINT OBSERVATIONS.

SCZ027-030-031-034>040-042>050-201500-
...SOUTHEAST SOUTH CAROLINA...

CITY           SKY/WX    TMP DP  RH WIND       PRES   REMARKS
N CHARLESTON   MOSUNNY   47  34  60 E8        30.27R
WATERFRONT PRK NOT AVBL
JOHNS ISLAND   FAIR      50  30  46 NE14      30.27R
PINOPOLIS        N/A     45  34  65 E7        30.18R
MONCKS CORNER  FAIR      46  28  49 NE8       30.27R
SUMMERVILLE    FAIR      45  36  70 E3        30.29R
BEAUFORT MCAS  MOSUNNY   49  35  58 NE9       30.26R
BEAUFORT ARPT  FAIR      50  34  53 NE15      30.26R
HILTON HEAD IS SUNNY     52  36  54 N7        30.26R
WALTERBORO     SUNNY     45  32  61 NE6       30.28S
ALLENDALE      FAIR      45  34  65 CALM      30.26R

...SOUTHERN MIDLANDS AND PEE DEE...

CITY           SKY/WX    TMP DP  RH WIND       PRES   REMARKS
GEORGETOWN     FAIR      45  32  61 CALM      30.28R
KINGSTREE      FAIR      41  32  70 CALM      30.27S
ORANGEBURG     SUNNY     45  32  60 NE5       30.27R
BARNWELL         N/A     43  34  70 NE6       30.27R
AIKEN          NOT AVBL
MANNING        FAIR      41  34  75 MISG      30.27R
COLUMBIA       MOSUNNY   40  35  83 CALM      30.27R
SUMTER         SUNNY     45  29  54 CALM      30.24R
FLORENCE       SUNNY     44  30  57 N7        30.27R
MYRTLE BEACH   SUNNY     45  31  58 N8        30.28R
N MYRTLE BEACH SUNNY     46  31  55 NE9       30.26R

$$

GAZ063-065-086>088-099>101-113>116-118-119-134>141-150-201500-
...SOUTHEAST GEORGIA...

CITY           SKY/WX    TMP DP  RH WIND       PRES   REMARKS
SAVANNAH ARPT  MOSUNNY   48  36  63 NE8       30.26R
HUNTER AAF     SUNNY     48  37  64 NE5       30.23R
FORT STEWART   SUNNY     45  35  68 NE6       30.23R
STATESBORO     SUNNY     46  31  56 E7        30.26R
SYLVANIA       SUNNY     46  36  68 E6        30.27R
CLAXTON        FAIR      46  39  77 NE6       30.26R

...CSRA...CENTRAL AND FAR SOUTHEAST GEORGIA...

CITY           SKY/WX    TMP DP  RH WIND       PRES   REMARKS
THOMSON        SUNNY     37  32  82 CALM      30.31R
AUGUSTA-BUSH   SUNNY     41  37  86 CALM      30.26S
AUGUSTA-DANIEL SUNNY     47  30  51 NE7       30.26R
SWAINSBORO     FAIR      45  34  65 E6        30.27R
VIDALIA        SUNNY     45  36  70 NE6       30.26R
EASTMAN        FAIR      42  32  69 CALM      30.29R
HAZLEHURST     FAIR      44  31  61 CALM      30.25R
ALMA           SUNNY     46  35  65 VRB5      30.24R
WAYCROSS       SUNNY     45  34  65 NE7       30.24R
JESUP          FAIR      46  36  66 CALM      30.24R
BAXLEY         FAIR      43  34  70 NE8       30.24R
BRUNSWICK      SUNNY     50  43  76 N6        30.23R
SAINT SIMONS   SUNNY     53  46  77 N8        30.21R

$$

SCZ027-028-034-036>038-045-046-048>050-GAZ119-141-201500-
...LAKE AND SUPPLEMENTAL COASTAL OBSERVATIONS...

STATION/POSITION TIME  TEMP    WIND        PRES    WAVE   SWELL
                       AIR SEA DIR/SP/G            HT/PER HT/PER/DIR
                 (UTC) (F)     (DEG/KT/KT) (MB)    (FT/S) (FT/S/D)
WINYAH BAY       1245   38     330/  4     1024.0
LAKE MURRAY      1320   44      CALM  /  2 1024.0R
ACE BASIN NERRS  1245   40      10/  1     1024.0
FORT PULASKI     1348   51 61   50/ 10/ 13 1024.5R
SAPELO ISLAND    1300   49      10/  9     1023.0

$$

ANZ835-935-AMZ111-154-330-350-352-354-370-450-454-472-201500-
...C-MAN AND BUOY OBSERVATIONS...

STATION/POSITION TIME  TEMP    WIND        PRES    WAVE   SWELL
                       AIR SEA DIR/SP/G            HT/PER HT/PER/DIR
                 (UTC) (F)     (DEG/KT/KT) (MB)    (FT/S) (FT/S/D)
BUOY 41004       1350   58 73   30/ 16/ 23 1023.6R   4/ 6
BUOY 41008       1350   61 67   70/ 16/ 17 1022.7R   3/ 5
FOLLY BEACH CMAN 1300   50      30/ 13/ 16 1024.3R
CAPERS NEARSHORE 1308   49 63   30/ 16/ 23 1023.4R
FRIPP NEARSHORE  1308   53 62   50/ 12/ 23 1023.0R


STATION/POSITION TIME  TEMP    WIND        PRES    WAVE   SWELL
                       AIR SEA DIR/SP/G            HT/PER HT/PER/DIR
                 (UTC) (F)     (DEG/KT/KT) (MB)    (FT/S) (FT/S/D)
5E ST. MARYS GA  1400      67                N/A     4/ 6
FRYING PAN BUOY  1350   53 70   10/ 16/ 21 1023.8R   4/ 6
BUOY 41025       1350   50 67  330/ 16/ 19 1023.8R   4/ 8   2/ 40/ 8
CAPE LOOKOUT NC  1300          340/ 17/ 20 1023.9R
BUOY 41002       1350   65 76  360/ 16/ 19 1020.8R   7/ 7   3/300/ 8
BUOY 41010       NOT AVBL
ST AUGUSTINE FL  1400   65 66   50/ 14/ 16 1021.9R


$$




USA.gov is the U.S. government's official web portal to all federal, state and local government web resources and services.